CDT,Max TemperatureF,Mean TemperatureF,Min TemperatureF,Max Dew PointF,MeanDew PointF,Min DewpointF,Max Humidity, Mean Humidity, Min Humidity, Max Sea Level PressureIn, Mean Sea Level PressureIn, Min Sea Level PressureIn, Max VisibilityMiles, Mean VisibilityMiles, Min VisibilityMiles, Max Wind SpeedMPH, Mean Wind SpeedMPH, Max Gust SpeedMPH,PrecipitationIn, CloudCover, Events, WindDirDegrees
2013-5-1,,,,,,,,,,,,,,,,,,,,,,
2013-5-2,,,,,,,,,,,,,,,,,,,,,,
2013-5-3,,,,,,,,,,,,,,,,,,,,,,
2013-5-4,,,,,,,,,,,,,,,,,,,,,,
2013-5-5,,,,,,,,,,,,,,,,,,,,,,
2013-5-6,,,,,,,,,,,,,,,,,,,,,,
2013-5-7,,,,,,,,,,,,,,,,,,,,,,
2013-5-8,,,,,,,,,,,,,,,,,,,,,,
2013-5-9,,,,,,,,,,,,,,,,,,,,,,
2013-5-10,71,64,57,64,56,50,83,76,64,30.01,29.93,29.88,10,10,6,10,4,18,0.01,7,,314
2013-5-11,69,58,46,54,45,30,94,67,32,30.16,30.04,29.98,10,9,3,10,3,20,0.00,4,,304
2013-5-12,53,44,35,39,36,28,93,77,41,30.24,30.19,30.16,10,10,10,10,2,,0.00,0,,294
2013-5-13,69,52,35,45,36,30,100,63,26,30.27,30.21,30.13,10,10,10,10,2,,0.00,0,,184
2013-5-14,86,78,71,61,57,46,60,47,39,29.99,29.90,29.85,10,10,5,20,13,24,0.00,0,,161
2013-5-15,80,70,46,55,54,52,72,60,42,30.00,29.96,29.91,10,10,5,15,8,22,0.00,0,,178
2013-5-16,82,72,62,63,58,55,82,60,39,29.97,29.94,29.92,10,10,5,,,,0.00,1,,-1
2013-5-17,75,72,68,61,59,57,68,62,57,30.02,30.00,29.97,10,10,10,12,6,16,0.00,7,,131
2013-5-18,75,,75,61,61,61,61,61,61,29.96,29.96,29.96,10,10,10,4,4,,0.00,0,,90
2013-5-19,87,87,87,70,69,68,55,54,52,29.86,29.86,29.85,10,10,10,12,11,,0.00,1,,185
2013-5-20,,,,,,,,,,,,,,,,,,,,,,
2013-5-21,78,72,66,63,60,57,78,68,54,29.86,29.81,29.76,10,10,10,24,13,30,0.05,3,,196
2013-5-22,77,70,64,59,55,52,78,57,47,29.87,29.80,29.74,10,10,10,16,10,25,0.01,6,,224
2013-5-23,66,58,51,54,48,39,77,65,49,30.25,30.03,29.88,10,10,3,12,5,18,0.00,5,,284
2013-5-24,69,55,42,45,36,30,82,55,30,30.41,30.33,30.25,10,10,7,10,6,,0.00,0,,34
2013-5-25,73,56,42,46,41,36,82,55,35,30.39,30.29,30.17,10,10,10,9,2,,0.00,2,,87
2013-5-26,80,66,53,57,50,41,72,54,42,30.24,30.17,30.07,10,10,10,12,7,16,0.00,4,,114
2013-5-27,84,73,62,61,56,52,77,60,37,30.07,29.99,29.86,10,10,5,21,8,29,0.63,3,Thunderstorm,193
2013-5-28,86,73,62,64,59,55,77,59,42,29.99,29.93,29.87,10,10,2,23,8,31,0.00,0,,193
2013-5-29,86,75,64,64,59,54,73,56,45,30.04,29.98,29.92,10,10,7,18,8,23,0.00,1,,177
2013-5-30,84,75,66,64,63,59,83,62,48,30.00,29.96,29.89,10,10,3,28,10,36,0.44,4,Thunderstorm,165
2013-5-31,82,73,64,66,63,57,83,69,54,29.98,29.91,29.83,10,9,2,20,9,29,1.48,6,Thunderstorm,176